Flag for U.S.A. Weather past 2 weeks in Lincoln, Nebraska, U.S.A.

Now
81 °F

Passing clouds.


Feels Like: 85 °F
Forecast: 70 / 90 °F
Wind: 15 mph from South

Location: Lincoln Municipal Airport

Current Time: Jul 28, 2015 at 6:08:45 AM

Latest Report: Jul 28, 2015 at 4:54 AM


Visibility: 10 mi

Pressure: 29.72 "Hg

Humidity: 72%

Dew point: 71 °F

Location of LincolnLocation

Historic Weather in Lincoln — Graph

°F

Lincoln temperature yesterday

Maximum temperature yesterday: 91 °F (at 2:54 PM)
Minimum temperature yesterday: 77 °F (at 6:54 AM)
Average temperature yesterday: 83 °F

Past Weeks' High & Low Weather Summary

 TemperatureHumidityPressure
High99 °F (Jul 24, 3:54 PM)97% (Jul 16, 2:54 AM)30.04 "Hg (Jul 16, 2:54 AM)
Low59 °F (Jul 21, 5:54 AM)33% (Jul 13, 5:54 PM)29.65 "Hg (Jul 17, 9:54 PM)
Average80 °F70%29.84 "Hg
* Reported Jul 13 4:54 AM — Jul 28 4:54 AM, Lincoln, Weather by CustomWeather, © 2015

Note: Actual official high and low records may vary slightly from our data, if they occured in-between our weather recording intervals... More about our weather records

Advertising

Lincoln weather history for previous 24 hours

 ConditionsComfort  
Time TempWeatherWind HumidityBarometerVisibility
4:54 AM
Tue, Jul 28
81 °FPassing clouds.15 mph72%29.72 "Hg10 mi
3:54 AM81 °FClear.13 mph72%29.72 "Hg10 mi
2:54 AM80 °FClear.14 mph76%29.74 "Hg10 mi
1:54 AM81 °FClear.14 mph74%29.76 "Hg10 mi
12:54 AM79 °FClear.8 mph90%29.78 "Hg9 mi
11:54 PM
Mon, Jul 27
80 °FClear.12 mph87%29.79 "Hg10 mi
10:54 PM82 °FClear.16 mph85%29.78 "Hg10 mi
9:54 PM85 °FClear.16 mph80%29.78 "Hg10 mi
8:54 PM86 °FSunny.13 mph75%29.77 "Hg10 mi
7:54 PM88 °FSunny.15 mph67%29.76 "Hg10 mi
6:54 PM90 °FSunny.14 mph61%29.77 "Hg10 mi
5:54 PM91 °FSunny.15 mph60%29.78 "Hg10 mi
4:54 PM91 °FSunny.14 mph57%29.79 "Hg10 mi
3:54 PM91 °FSunny.17 mph54%29.81 "Hg10 mi
2:54 PM91 °FSunny.16 mph50%29.83 "Hg10 mi
1:54 PM88 °FSunny.10 mph54%29.85 "Hg10 mi
12:54 PM85 °FPartly sunny.8 mph61%29.87 "Hg10 mi
11:54 AM83 °FPartly sunny.6 mph65%29.86 "Hg10 mi
10:54 AM81 °FSunny.9 mph69%29.86 "Hg10 mi
9:54 AM79 °FSunny.6 mph74%29.85 "Hg10 mi
8:54 AM78 °FSunny.5 mph76%29.86 "Hg10 mi
7:54 AM77 °FSunny.6 mph82%29.86 "Hg10 mi
6:54 AM77 °FClear.3 mph79%29.84 "Hg10 mi
Weather by CustomWeather, © 2015

See weather overviewHow to use our weather pages